GW0986 Weather Reports


time (UTC)temp
C
wind
direction
speed
KPH
gust
KPH
rain 1hr
cm
rain 24hr
cm
rain mn
cm
humidity
%
barometer
mb
20260507084552 12 0 0.0 0.0 0.00 0.00 0.00 87 1017.0
20260507083052 12 0 0.0 0.0 0.00 0.00 0.00 86 1017.2
20260507081553 13 0 0.0 0.0 0.00 0.00 0.00 86 1017.2
20260507080055 13 0 0.0 0.0 0.00 0.00 0.00 86 1017.2
20260507074558 13 0 0.0 0.0 0.00 0.00 0.00 85 1017.2
20260507073053 13 0 0.0 0.0 0.00 0.00 0.00 85 1017.3
20260507071553 13 0 0.0 0.0 0.00 0.00 0.00 84 1017.3
20260507070054 13 0 0.0 0.0 0.00 0.00 0.00 84 1017.4
20260507064606 13 0 0.0 0.0 0.00 0.00 0.00 83 1017.5
20260507063056 14 0 0.0 0.0 0.00 0.00 0.00 83 1017.5
20260507061553 14 0 0.0 0.0 0.00 0.00 0.00 82 1017.5
20260507060054 14 0 0.0 0.0 0.00 0.00 0.00 82 1017.6
20260507054557 14 0 0.0 0.0 0.00 0.00 0.00 81 1017.5
20260507053051 15 0 0.0 0.0 0.00 0.00 0.00 80 1017.6
20260507051551 15 0 0.0 0.0 0.00 0.00 0.00 79 1017.5
20260507050052 15 0 0.0 0.0 0.00 0.00 0.00 78 1017.3
20260507044555 15 0 0.0 0.0 0.00 0.00 0.00 78 1017.4
20260507043100 16 0 0.0 0.0 0.00 0.00 0.00 77 1017.4
20260507041603 16 0 0.0 0.0 0.00 0.00 0.00 75 1017.2
20260507040059 16 0 0.0 1.6 0.00 0.00 0.00 74 1017.2
20260507034557 17 0 0.0 3.2 0.00 0.00 0.00 73 1017.1
20260507033053 17 0 0.0 6.4 0.00 0.00 0.00 72 1017.0
20260507031552 17 0 0.0 3.2 0.00 0.00 0.00 71 1016.8
20260507030058 17 0 0.0 3.2 0.00 0.00 0.00 70 1016.7
20260507024553 18 0 0.0 3.2 0.00 0.00 0.00 69 1016.6
20260507023108 18 0 1.6 6.4 0.00 0.00 0.00 67 1016.4
20260507021553 18 221 0.0 6.4 0.00 0.00 0.00 65 1016.3
20260507020051 19 300 0.0 8.0 0.00 0.00 0.00 63 1016.1
20260507014604 19 180 0.0 11.3 0.00 0.00 0.00 64 1016.1
20260507013109 20 0 0.0 8.0 0.00 0.00 0.00 62 1015.9
20260507011554 20 0 1.6 8.0 0.00 0.00 0.00 61 1015.8
20260507010056 21 259 0.0 9.7 0.00 0.00 0.00 60 1015.7
20260507004557 21 290 1.6 14.5 0.00 0.00 0.00 57 1015.7
20260507003056 21 360 3.2 11.3 0.00 0.00 0.00 56 1015.8
20260507001609 22 130 3.2 14.5 0.00 0.00 0.00 55 1015.7
20260507000059 22 221 1.6 14.5 0.00 0.00 0.00 53 1015.7
20260506234602 22 273 1.6 11.3 0.00 0.00 0.00 51 1015.6
20260506233109 23 222 3.2 14.5 0.00 0.00 0.00 49 1015.6
20260506231552 23 248 1.6 9.7 0.00 0.00 0.00 47 1015.6
20260506230056 23 333 4.8 14.5 0.00 0.00 0.00 46 1015.8
20260506224557 23 136 3.2 12.9 0.00 0.00 0.00 47 1015.9
20260506223111 23 157 1.6 17.7 0.00 0.00 0.00 47 1016.2
20260506221552 23 0 3.2 14.5 0.00 0.00 0.00 47 1016.3
20260506220056 23 224 1.6 14.5 0.00 0.00 0.00 48 1016.3
20260506214604 23 289 3.2 16.1 0.00 0.00 0.00 50 1016.5
20260506213051 23 222 1.6 14.5 0.00 0.00 0.00 50 1016.7
20260506211551 23 292 3.2 14.5 0.00 0.00 0.00 50 1016.7
20260506210052 22 144 3.2 16.1 0.00 0.00 0.00 54 1016.9
20260506204550 22 323 3.2 12.9 0.00 0.00 0.00 54 1017.0
20260506203100 22 81 4.8 17.7 0.00 0.00 0.00 54 1017.0
20260506201549 23 254 1.6 12.9 0.00 0.00 0.00 55 1017.2
20260506200135 22 335 3.2 14.5 0.00 0.00 0.00 54 1017.4
20260506194558 23 277 1.6 11.3 0.00 0.00 0.00 55 1017.6
20260506193051 22 170 1.6 8.0 0.00 0.00 0.00 54 1017.6
20260506191552 22 255 3.2 12.9 0.00 0.00 0.00 55 1017.6
20260506190049 22 155 3.2 11.3 0.00 0.00 0.00 55 1017.7
20260506184553 22 19 1.6 11.3 0.00 0.00 0.00 51 1018.0
20260506183053 22 15 1.6 8.0 0.00 0.00 0.00 51 1018.0
20260506181550 21 0 1.6 11.3 0.00 0.00 0.00 54 1018.2
20260506174549 20 241 1.6 11.3 0.00 0.00 0.00 54 1018.3
20260506173106 20 0 0.0 6.4 0.00 0.00 0.00 60 1018.2
20260506171558 20 39 1.6 14.5 0.00 0.00 0.00 58 1018.4
20260506170052 19 121 1.6 8.0 0.00 0.00 0.00 61 1018.4
20260506164551 18 100 3.2 11.3 0.00 0.00 0.00 61 1018.3
20260506163058 18 123 3.2 11.3 0.00 0.00 0.00 62 1018.4
20260506161555 18 205 0.0 9.7 0.00 0.00 0.00 64 1018.4
20260506160104 18 160 1.6 9.7 0.00 0.00 0.00 65 1018.5
20260506154552 17 0 1.6 6.4 0.00 0.00 0.00 66 1018.5
20260506153058 18 122 1.6 4.8 0.00 0.00 0.00 66 1018.5
20260506151556 17 0 0.0 3.2 0.00 0.00 0.00 71 1018.5
20260506150101 16 0 0.0 6.4 0.00 0.00 0.00 72 1018.3
20260506144555 16 0 1.6 3.2 0.00 0.00 0.00 69 1018.3
20260506143100 15 75 1.6 4.8 0.00 0.00 0.00 71 1018.3
20260506141556 14 0 0.0 3.2 0.00 0.00 0.00 76 1018.2
20260506140059 12 0 0.0 1.6 0.00 0.00 0.00 86 1018.2
20260506134616 10 0 0.0 0.0 0.00 0.00 0.00 89 1018.2
20260506133100 9 0 0.0 1.6 0.00 0.00 0.00 90 1018.1
20260506131609 9 0 0.0 0.0 0.00 0.00 0.00 89 1017.8
20260506130057 9 0 0.0 0.0 0.00 0.00 0.00 88 1017.7
20260506124552 9 0 0.0 1.6 0.00 0.00 0.00 88 1017.6
20260506123055 9 0 0.0 1.6 0.00 0.00 0.00 88 1017.5
20260506121601 9 0 0.0 1.6 0.00 0.00 0.00 88 1017.3
20260506120053 10 0 0.0 0.0 0.00 0.00 0.00 88 1017.3
20260506114553 10 0 0.0 1.6 0.00 0.03 0.00 88 1017.3
20260506113054 10 0 0.0 1.6 0.00 0.03 0.00 89 1017.3
20260506111611 10 0 0.0 0.0 0.00 0.03 0.00 89 1017.4
20260506110057 10 0 0.0 1.6 0.00 0.03 0.00 90 1017.3
20260506104605 10 0 0.0 1.6 0.00 0.03 0.00 91 1017.4
20260506103106 10 0 0.0 1.6 0.00 0.03 0.00 91 1017.4
20260506101554 10 0 0.0 0.0 0.00 0.03 0.00 91 1017.4
20260506100105 10 0 0.0 0.0 0.00 0.03 0.00 91 1017.5
20260506094556 11 0 0.0 0.0 0.00 0.03 0.00 91 1017.5
20260506093104 11 0 0.0 1.6 0.00 0.03 0.00 91 1017.5
20260506091549 11 0 0.0 0.0 0.00 0.03 0.00 91 1017.6
20260506090049 11 0 0.0 1.6 0.00 0.03 0.00 91 1017.7